YAHSAT 1A

Last updated on Oct. 23, 2020, 5:56 a.m. UTC

1 37393U 11016B   20296.54917653  .00000087  00000-0  00000+0 0  9997
2 37393   0.0137 200.7209 0001749  10.2529  70.6751  1.00271938 34866
UTC
Height (km)
Latitude
Longitude
Inclination
Orbital Period
UTC large
Height (km)
Speed (km/s)
/
Latitude / Longitude
Inclination (degrees)
Orbital Period (minutes)
Azimuth
Elevation
Range (km)
Doppler Factor
iOS Compass Heading
iOS Angle

Next 30 passes for location: Hong Kong

Rise time Rise Azimuth (degrees) Set time Set Azimuth (degrees) Duration Max altitude (degrees)

No matching passes for this satellites